Other Public Products
Issued by NWS Grand Forks, ND

Home | Current Version | Previous Version | Text Only | Print | Product List | Glossary On
Versions: 1 2 3 4 5 6 7 8 9 10 11 12 13 14 15 16 17 18 19 20 21 22 23 24 25 26 27 28 29 30 31 32 33 34 35 36 37 38 39 40 41 42 43 44 45 46 47 48 49 50
000
FPUS83 KFGF 270331
OPUFGF
PRAIRIE TO PINES WEATHER ROUNDUP
NATIONAL WEATHER SERVICE EASTERN NORTH DAKOTA/GRAND FORKS ND
1000 PM CDT FRI MAY 26 2017

 **SATELLITE DATA USED TO AUGMENT SKY COVER AT AUTOMATED STATIONS**
 *****  WEATHER ACROSS EASTERN NORTH DAKOTA  *****

CITY           SKY/WX    TMP DP  RH WIND       PRES   REMARKS
GRAND FORKS    FAIR      58  43  57 W8        29.75R
GRAND FORKS AF FAIR      55  42  62 W6        29.76R
GRAND CITY NWS NOT AVBL
BUXTON           N/A     59  42  52 SW6         N/A
DEVILS LAKE    FAIR      57  44  62 SW7       29.78R
FARGO          FAIR      59  43  55 W8        29.80R
WAHPETON ARPT  FAIR      54  41  62 W6        29.82S
$$

 *****  WEATHER ACROSS CENTRAL AND WESTERN NORTH DAKOTA  *****

CITY           SKY/WX    TMP DP  RH WIND       PRES   REMARKS
JAMESTOWN      FAIR      56  41  57 SW5       29.81R
BISMARCK       FAIR      57  37  47 SW5       29.83R
MINOT          FAIR      58  35  42 W7        29.76R
MINOT AFB      FAIR      55  35  47 W8        29.75R
GARRISON         N/A     58  33  39 W8        29.80R
WILLISTON      FAIR      56  39  53 W9        29.83R
DICKINSON      FAIR      50  33  52 W7        29.85R
HETTINGER      FAIR      52  36  54 NW5       29.90R
$$

 *****  OTHER OBSERVATIONS NORTHEAST NORTH DAKOTA  *****

CITY           SKY/WX    TMP DP  RH WIND       PRES   REMARKS
WALHALLA       NOT AVBL
LANGDON        FAIR      52  41  66 SW9       29.75R
CAVALIER       FAIR      55  43  62 SW7       29.72R
GRAFTON        FAIR      54  41  62 MISG      29.76R
CANDO          NOT AVBL
FORT TOTTEN    NOT AVBL
ROLLA          FAIR      50  39  66 SW6       29.75R
RUGBY          NOT AVBL
 ***** THE ABOVE OBSERVATIONS ARE NON NWS ARE NOT QUALITY
        CONTROLLED AND MAY MIS-REPORT RAIN FOR SNOW...
$$

 *****  OTHER OBSERVATIONS SOUTHEAST NORTH DAKOTA *****

CITY           SKY/WX    TMP DP  RH WIND       PRES   REMARKS
COOPERSTOWN    FAIR      52  41  66 SW8       29.81R
VALLEY CITY    FAIR      54  43  66 SW8       29.83R
OAKES          NOT AVBL
GWINNER        CLEAR     55  45  67 MISG      29.84R
SHEYENNE NWR     N/A     57  44  61 W5        29.95S
BUFFALO          N/A     55  35  45 E6          N/A
WYNDMERE         N/A     55  41  58 W5          N/A
 ***** THE ABOVE OBSERVATIONS ARE NON NWS ARE NOT QUALITY
       CONTROLLED AND MAY MIS-REPORT RAIN FOR SNOW...
$$

  *****  WEATHER ACROSS NORTHERN MINNESOTA  *****

CITY           SKY/WX    TMP DP  RH WIND       PRES   REMARKS
FLAG ISLAND    FAIR      61  46  59 SW6       29.70R
WARROAD        FAIR      57  48  72 S5        29.74R
ROSEAU         MOCLDY    57  48  72 SW5       29.74R
HALLOCK        FAIR      55  43  62 W6        29.72S
THF RVR FALLS  FAIR      60  43  53 W10       29.78R
HALSTAD          N/A     58  41  53 NW6         N/A
FOSSTON        FAIR      52  41  66 S5        29.80R
BAUDETTE       FAIR      59  43  55 SW5       29.73R
WASKISH        FAIR      57  48  72 SW8       29.76R
CROOKSTON      FAIR      57  43  58 W6        29.78R
$$
  *****  WEATHER ACROSS CENTRAL AND WEST MINNESOTA  *****

CITY           SKY/WX    TMP DP  RH WIND       PRES   REMARKS
BEMIDJI        FAIR      56  42  58 W3        29.79R
PARK RAPIDS    LGT RAIN  57  41  55 W5        29.80R
WADENA         FAIR      55  43  62 W3        29.82R
DETROIT LAKES  FAIR      59  43  55 SW3       29.83R
MOORHEAD       FAIR      57  43  58 W6        29.81R
FERGUS FALLS   FAIR      55  45  67 W6        29.81R
ELBOW LAKE     FAIR      56  44  65 CALM      29.84R
MORRIS MN      FAIR      57  46  67 W7        29.84R
STAPLES        FAIR      55  45  67 W5        29.82R
WHEATON        FAIR      59  43  55 CALM      29.86R
$$
  *****  WEATHER ELSEWHERE ACROSS MINNESOTA  *****

CITY           SKY/WX    TMP DP  RH WIND       PRES   REMARKS
DULUTH         FAIR      51  48  89 SE5       29.78R
INTRNTL FALLS  FAIR      62  44  51 W6        29.73R
ELY            FAIR      55  54  94 SE3       29.76R
CLOQUET        FAIR      52  48  87 CALM      29.79R
BRAINERD       FAIR      63  45  51 W5        29.79R
HIBBING        FAIR      53  45  74 CALM      29.74R
ALEXANDRIA     FAIR      57  45  64 W6        29.84R
SAINT CLOUD    FAIR      60  48  64 W8        29.80R
MINNEAPOLIS    FAIR      67  46  47 W5        29.79R
$$

  *****  WEATHER ACROSS SOUTH DAKOTA  *****

CITY           SKY/WX    TMP DP  RH WIND       PRES   REMARKS
SIOUX FALLS    FAIR      61  45  55 W5        29.89R
BROOKINGS      FAIR      57  46  66 NW6       29.89R
WATERTOWN      FAIR      58  44  60 W5        29.88R
HURON          FAIR      59  47  64 SW5       29.87R
SISSETON         N/A     56  48  74 W6        29.83R
ABERDEEN       FAIR      58  42  55 CALM      29.85R
MITCHELL       FAIR      61  44  53 W6        29.89R
PIERRE         MOCLDY    64  38  38 W5        29.87S
MOBRIDGE       FAIR      51  39  63 CALM      29.85R
RAPID CITY     LGT RAIN  52  47  83 S5        29.96R
$$

  *****  SOME WEATHER IN NEARBY STATES *****

CITY           SKY/WX    TMP DP  RH WIND       PRES   REMARKS
GLASGOW MT     FAIR      56  39  53 NW6       29.87R
GREAT FALLS MT MOCLDY    53  39  59 SW9       29.96R
CHEYENNE WY    CLOUDY    46  44  93 N18G25    30.00S
SCOTTSBLUFF NE LGT RAIN  51  48  89 NE10      29.99R
OMAHA NE       FAIR      63  54  72 N3        29.86R
DES MOINES IA  FAIR      71  63  75 SE7       29.83R
DAVENPORT IA   CLOUDY    62  59  90 NE9       29.85R
CHICAGO IL     LGT RAIN  56  53  90 E6        29.84S
EAU CLAIRE WI  FAIR      66  56  70 S10       29.79R
LA CROSSE WI   FAIR      65  58  78 S7        29.82R
$$

  *****  SOME NATIONAL WEATHER *****

CITY           SKY/WX    TMP DP  RH WIND       PRES   REMARKS
LA GUARDIA NY  FAIR      66  53  63 NW9       29.78R
RALEIGH NC     FAIR      68  59  73 CALM      29.96R
ATLANTA GA     FAIR      74  61  63 SW6       30.01R
NEW ORLEANS LA FAIR      76  72  87 SE7       30.00R
OKLAHOMA CITY  FAIR      80  66  62 E3        29.79R
ALBUQUERQUE NM FAIR      76   7   7 W17       29.95R
SALT LAKE CITY FAIR      60  40  47 N10       29.98R
LOS ANGELES CA FAIR      62  53  72 W14       29.99S
BOISE ID       FAIR      70  34  26 NW10      29.96R
SEATTLE WA     FAIR      75  47  36 N9        29.97R
$$

*** WEATHER ACROSS MANITOBA...SASKATCHEWAN AND ONTARIO ***
                ***ONTARIO***

CITY           SKY/WX    TMP DP  RH WIND       PRES   REMARKS
GERALDTON      CLOUDY    61  46  59 SW8       29.82R
THUNDER BAY    PTCLDY    52  48  87 NE7       29.78S
SIOUX LOOKOUT  MOCLDY    54  54 100 S6        29.70R
TORONTO        MOCLDY    59  55  88 W7        29.86R
BIG TROUT LK   CLEAR     55  48  76 SE6       29.65S
PICKLE LAKE    NOT AVBL
DRYDEN         CLOUDY    59  55  88 S9        29.70R
KENORA         PTCLDY    59  43  55 SW8       29.70R
$$
                *** MANITOBA***

CITY           SKY/WX    TMP DP  RH WIND       PRES   REMARKS
BRANDON        PTCLDY    54  45  71 W9        29.69S
DAUPHIN        CLEAR     55  45  67 W13       29.64R
ISLAND LAKE    MOCLDY    61  45  55 SW6       29.56
PILOT MOUND      N/A     52  43  71 SW5         N/A
THE PAS        DRIZZLE   52  50  93 W10       29.53S
THOMPSON       MOCLDY    55  54  94 NE6       29.50R
WINNIPEG       MOCLDY    61  46  59 W7        29.68R
LYNN LAKE      LGT RAIN  48  46  93 NE10      29.58R
CHURCHILL      CLOUDY    34  32  93 NE16      29.70F WCI  23
GILLAM         CLOUDY    52  50  93 NE8       29.55F
$$
                ***SASKATCHEWAN***

CITY           SKY/WX    TMP DP  RH WIND       PRES   REMARKS
ESTEVAN        PTCLDY    57  39  51 W15       29.76R
KINDERSLEY     PTCLDY    54  48  82 SW9       29.77S
LLOYDMINSTER   PTCLDY    61  43  51 N5        29.74R
PRINCE ALBERT  PTCLDY    57  39  51 N12       29.69R
REGINA         LGT RAIN  57  37  47 W13       29.74R
YORKTON          N/A     54  45  71 W8        29.68R



USA.gov is the U.S. government's official web portal to all federal, state and local government web resources and services.